OpenBCM V1.08-5-g2f4a (Linux)

Packet Radio Mailbox

IZ3LSV

[San Dona' di P. JN]

 Login: GUEST





  
I0OJJ  > KEPS     01.09.25 02:45l 316 Lines 15000 Bytes #164 (0) @ AMSAT
BID : ORB25244.1
Read: GUEST
Subj: 2Line Orbital Elements 25244.AMSAT
Path: IZ3LSV<IK6IHL<IK7NXU<HB9ON<DK0WUE<PD0LPM<IR0AAB<I0OJJ
Sent: 250901/0025z @:I0OJJ.ITA.EU [Rome] obcm1.08-10-g596e
From: I0OJJ @ I0OJJ.ITA.EU (Gustavo)
To:   KEPS @ AMSAT
X-Info: This message was generated automatically


QST de W1STR

AMSAT Orbital Elements for Amateur Satellites in TLE Format
From Orbital Analysis Office
New England Sci-Tech STEM Education Center
Natick MA September 01, 2025
To all radio amateurs


These element sets describe the orbits of various satellites 
in use by the amateur radio community. For details see:
www.amsat.org/keplerian-elements-formats/

A daily update of element sets is available at:
www.amsat.org/tle/daily-bulletin.txt
or without bulletin text:
www.amsat.org/tle/dailytle.txt


AO-07
1 07530U 74089B   25243.56920471 -.00000037  00000-0  60113-4 0  9999
2 07530 101.9975 248.7255 0012050 325.5499 154.4647 12.53691150324224
UO-11
1 14781U 84021B   25243.49943856  .00002682  00000-0  28637-3 0  9997
2 14781  97.7625 208.2722 0009294  67.3719 292.8481 14.89606683213987
AO-27
1 22825U 93061C   25243.43471287  .00000179  00000-0  85368-4 0  9991
2 22825  98.7297 305.3764 0007628 224.7708 135.2860 14.30822853665563
FO-29
1 24278U 96046B   25243.56078922  .00000019  00000-0  52781-4 0  9990
2 24278  98.5618 126.4909 0350666 127.4876 235.8697 13.53252503433991
NOAA-15
1 25338U 98030A   25243.54971616  .00000238  00000-0  11541-3 0  9994
2 25338  98.5330 266.6740 0011375 113.8567 246.3807 14.27009328419987
GO-32
1 25397U 98043D   25243.51446992  .00000174  00000-0  95396-4 0  9994
2 25397  98.9788 224.3960 0001270  21.0272 339.0958 14.24333830410099
ISS
1 25544U 98067A   25243.49210075  .00011625  00000-0  20897-3 0  9998
2 25544  51.6342 293.8293 0003335 297.3470  62.7180 15.50324166526847
NO-44
1 26931U 01043C   25243.49425325  .00000241  00000-0  12133-3 0  9999
2 26931  67.0493 273.4580 0006952 275.8572  84.1738 14.31769405248970
SO-50
1 27607U 02058C   25243.56843030  .00001936  00000-0  25416-3 0  9992
2 27607  64.5532 304.3257 0064982 316.4238  43.1744 14.81830299221529
CO-55
1 27844U 03031E   25243.59050438  .00000575  00000-0  26920-3 0  9991
2 27844  98.6786 250.8024 0008676 311.8467  48.1971 14.24053739150452
CO-57
1 27848U 03031J   25243.01555000  .00000476  00000-0  22902-3 0  9993
2 27848  98.6813 250.1774 0008935 332.6998  27.3710 14.23379758150091
RS-22
1 27939U 03042A   25243.57786712  .00002273  00000-0  36558-3 0  9992
2 27939  98.3358  55.0796 0012591 105.5921 326.7994 14.72536585172917
CO-58
1 28895U 05043F   25243.36120875  .00002994  00000-0  49251-3 0  9990
2 28895  98.2612  28.8097 0015263  48.2928 311.9581 14.71272186 59119
CO-65
1 32785U 08021C   25243.52634709  .00009232  00000-0  65065-3 0  9999
2 32785  97.7939 215.3785 0007664 297.3006  62.7439 15.05205737941552
CO-66
1 32791U 08021J   25243.47714473  .00021273  00000-0  97219-3 0  9992
2 32791  97.7348 225.5014 0002146 194.5287 165.5886 15.20587338943085
RS-30
1 32953U 08025A   25243.61722795  .00000038  00000-0  20175-3 0  9991
2 32953  82.5069 175.5469 0018070 222.6483 137.3195 12.43167808783719
NOAA-19
1 33591U 09005A   25243.59586388  .00000190  00000-0  12505-3 0  9999
2 33591  98.9907 308.7419 0014650 127.1469 233.1043 14.13401223853578
SRMSAT
1 37841U 11058D   25243.45181840  .00000517  00000-0  13682-3 0  9991
2 37841  19.9733  13.0460 0011624 256.8830 160.2165 14.11458249716832
ZACUBE-1
1 39417U 13066B   25243.60482172  .00007717  00000-0  65654-3 0  9997
2 39417  97.7856 200.2440 0044595 133.3590 227.1361 14.97321940637335
Delfi-N3xt
1 39428U 13066N   25243.56481243  .00012462  00000-0  12334-2 0  9991
2 39428  97.8284 160.3164 0085223  87.1244 273.9723 14.89274533631428
GOMX-1
1 39430U 13066Q   25243.58665089  .00002918  00000-0  45650-3 0  9991
2 39430  97.6749  97.1378 0130429 286.9679  71.7266 14.67930315627401
LO-74
1 39440U 13066AA  25243.60311230  .00006802  00000-0  67883-3 0  9999
2 39440  97.8529 187.6352 0059370 265.9318  93.5112 14.90537374633806
AO-73
1 39444U 13066AE  25243.44406064  .00012894  00000-0  93485-3 0  9990
2 39444  97.7891 205.7556 0042863 106.2919 254.3027 15.03322832636038
DTUSAT-2
1 40030U 14033W   25243.45932307  .00011193  00000-0  70559-3 0  9991
2 40030  98.0633 219.3770 0010732 131.5903 228.6246 15.09273040608894
EO-80
1 40032U 14033Y   25243.47536644  .00012753  00000-0  80140-3 0  9999
2 40032  98.0515 218.9329 0010435  83.4111 276.8304 15.09355834608876
LILACSAT-2
1 40908U 15049K   25243.59843368  .00018125  00000-0  44494-3 0  9997
2 40908  97.5043 266.0399 0007944 209.2660 150.8142 15.40712620551005
IO-86
1 40931U 15052B   25151.18580175  .00001241  00000-0  78118-4 0  9996
2 40931   6.0006  24.0987 0012733 338.8432  21.1169 14.78805930523159
Horyu-4
1 41340U 16012D   25243.45384464  .00039294  00000-0  93308-3 0  9999
2 41340  30.9963 293.2585 0006982 199.6491 160.3887 15.40429887525566
Lapan A3
1 41603U 16040E   25243.62054510  .00005607  00000-0  19297-3 0  9993
2 41603  97.1413 245.0097 0009998 343.3188  16.7723 15.30393637510487
CAS-2T
1 41847U 16066G   25243.43977413  .00001069  00000-0  16212-3 0  9998
2 41847  98.4146 317.1680 0344279 287.8544  68.5380 14.43677732462973
CAS-4B
1 42759U 17034B   25243.52992024  .00196485  00000-0  11058-2 0  9991
2 42759  43.0014 183.1091 0021628 162.3269 197.8357 15.77537396455638
CAS-4A
1 42761U 17034D   25243.15397887  .00218408  00000-0  10913-2 0  9998
2 42761  43.0051 181.2832 0022121 165.4043 194.7471 15.80076010455602
TechnoSat
1 42829U 17042E   25243.52252188  .00005676  00000-0  43336-3 0  9994
2 42829  97.4011  48.3122 0017669   8.5815 351.5709 15.02228632443175
AO-91
1 43017U 17073E   25243.61566232  .00010767  00000-0  54058-3 0  9996
2 43017  97.5120 112.3046 0167202 243.1371 115.2681 15.06013293421705
S-Net D
1 43186U 18014G   25243.54498787  .00009382  00000-0  54105-3 0  9994
2 43186  97.5514 145.6028 0007391 307.6513  52.4047 15.12564454414914
S-Net B
1 43187U 18014H   25243.61763235  .00009355  00000-0  53978-3 0  9993
2 43187  97.5520 145.6504 0008006 300.4967  59.5472 15.12544579414926
S-Net A
1 43188U 18014J   25243.47892429  .00009107  00000-0  52523-3 0  9996
2 43188  97.5528 145.6741 0007860 302.3362  57.7107 15.12568552414905
S-Net C
1 43189U 18014K   25243.62023305  .00009259  00000-0  53419-3 0  9996
2 43189  97.5545 145.8422 0009283 291.7502  68.2741 15.12540867413472
Ten-Koh
1 43677U 18084G   25243.47299419  .00004089  00000-0  32591-3 0  9993
2 43677  98.0833  59.0141 0006500 359.4544   0.6671 15.00925382372675
PO-101
1 43678U 18084H   25243.59001285  .00004681  00000-0  39451-3 0  9999
2 43678  98.1103  62.9234 0009024  25.7438 334.4231 14.98679834372812
QO-100
1 43700U 18090A   25243.53047853  .00000148  00000-0  00000-0 0  9996
2 43700   0.0136 111.6333 0001215  63.5440  21.5655  1.00274615 24775
MinXSS-2
1 43758U 18099A   25243.43116418  .00026657  00000-0  97090-3 0  9992
2 43758  97.4942 309.8377 0010782 216.8468 143.2032 15.28126102369612
AO-95
1 43770U 18099N   25243.11954000  .00015371  00000-0  74503-3 0  9993
2 43770  97.4843 300.3333 0008799 285.3486  74.6776 15.18584341369074
SNUSat 2
1 43782U 18099AA  25243.42460448  .00012344  00000-0  65021-3 0  9990
2 43782  97.4523 296.6972 0010930 219.9745 140.0684 15.15696811369045
SnugLite
1 43784U 18099AC  25243.59271086  .00015239  00000-0  73168-3 0  9995
2 43784  97.4336 296.6044 0002885 197.4327 162.6809 15.18943155369234
ITASat 1
1 43786U 18099AE  25243.59175241  .00009919  00000-0  55052-3 0  9993
2 43786  97.4493 296.1188 0012377 279.4739  80.5093 15.13878221369014
EAGLET 1
1 43790U 18099AJ  25243.55248512  .00007278  00000-0  45508-3 0  9997
2 43790  97.4691 295.7481 0010325 263.1490  96.8565 15.09683274368587
ESEO
1 43792U 18099AL  25243.56862284  .00002239  00000-0  17112-3 0  9990
2 43792  97.4403 287.9010 0010451 235.3928 124.6312 15.02885565368285
JO-97
1 43803U 18099AX  25243.44317292  .00019935  00000-0  85994-3 0  9998
2 43803  97.4588 301.8400 0006928 203.2969 156.7955 15.22553755369379
Suomi 100
1 43804U 18099AY  25243.59800293  .00015956  00000-0  74565-3 0  9994
2 43804  97.4654 301.0380 0011431 211.6971 148.3577 15.19818177369302
ISAT
1 43879U 18111D   25243.22321053  .00033930  00000-0  10636-2 0  9993
2 43879  97.5876 159.5822 0005234 258.9105 101.1548 15.32983891366342
UWE-4
1 43880U 18111E   25243.50395434  .00027997  00000-0  10170-2 0  9999
2 43880  97.5822 157.7271 0008669 280.2217  79.8044 15.28224096366285
Sparrow
1 43881U 18111F   25243.52516025  .00039007  00000-0  11664-2 0  9997
2 43881  97.6035 163.1106 0003877 322.0415  38.0553 15.34458212366493
Prox-1
1 44339U 19036A   25243.30858764  .00018418  00000-0  22583-2 0  9993
2 44339  23.9956 237.7665 0006395 293.0730  66.9093 14.81522670330298
Taurus 1
1 44530U 19059C   25243.63936705  .00012277  00000-0  22071-2 0  9998
2 44530  98.6153  27.0647 0009970 136.4753 223.7238 14.66763034316119
Duchifat 3
1 44854U 19089C   25243.52771613  .00098290  00000-0  14354-2 0  9997
2 44854  36.9381 185.0540 0008395 260.5198  99.4612 15.54388247315890
TO-108
1 44881U 19093C   25243.60359750  .00001558  00000-0  18534-3 0  9991
2 44881  97.7871 317.5028 0012834 323.9774  36.0575 14.85752855308406
FloripaSat 1
1 44885U 19093G   25243.52990486  .00010606  00000-0  87260-3 0  9999
2 44885  97.8145 331.3324 0007623 290.5461  69.4943 14.99281304309175
RS-44
1 44909U 19096E   25243.50428086  .00000037  00000-0  94075-4 0  9999
2 44909  82.5253 172.1945 0218475 101.5909 260.9804 12.79742971265296
UPMSat 2
1 46276U 20061E   25243.15888955  .00208080  00000-0  92475-3 0  9997
2 46276  97.2334 321.0481 0002568 218.1467 141.9622 15.83792160278468
SALSAT
1 46495U 20068K   25243.51796067  .00011672  00000-0  48661-3 0  9996
2 46495  97.8684 225.4737 0009605 226.5613 133.4824 15.23831750271153
